Location: Czekanka
(50.4925°N, 19.2643°E)
Time: 13:24:03
(UTC+00:00)

CZ-2D R/B - Pass Details

Date: 15 June 2024
Orbit: 789 x 844 km, 98.8° (Epoch: 15 July)

Event Time Altitude Azimuth Distance (km) Brightness Sun altitude
Rises 00:10:10 0° 20° (NNE) 3,374 7.4 -13.7°
Reaches altitude 10° 00:12:42 10° 28° (NNE) 2,427 6.0 -13.6°
Maximum altitude 00:17:42 38° 97° (E) 1,216 3.2 -13.3°
Enters shadow 00:22:28 11° 165° (SSE) 2,336 4.0 -13.0°
